Temperature
20 21 22 21 21 20 19 18 17 17 16 15 15 15 15 15 15 15 15 14 14 14 14 13 13 13 13 12 12 12 12 11 11 11 11 10 10 10 10 10 10 9 9 9
19 21 21 20 20 20 19 18 18 17 15 15 15 15 15 15 15 14 14 14 14 14 13 13 13 12 12 12 12 12 11 11 11 11 10 10 10 10 10 10 9 9 9 9
18 20 20 17 18 18 18 17 16 15 15 14 14 14 15 15 15 14 14 14 13 13 13 13 12 12 12 12 11 11 11 11 11 10 10 10 10 10 9 9 9 9 9 9
18 18 19 18 19 19 17 16 15 15 15 14 14 15 15 15 14 14 14 13 13 13 12 12 12 12 11 11 11 11 10 10 10 10 10 9 9 9 9 9 9 9 8 8
17 18 18 18 18 18 17 16 15 15 14 14 14 14 13 14 14 13 13 13 12 12 12 11 11 11 10 10 10 10 9 9 9 9 9 9 9 9 9 8 8 8 8 8
17 19 18 17 19 19 17 15 15 14 13 14 13 10 11 13 13 13 12 12 11 11 10 10 9 9 9 8 8 8 8 8 8 8 8 8 8 8 8 8 8 8 8 8
17 18 17 17 18 17 15 14 15 15 14 14 12 11 13 13 12 12 11 10 10 9 9 8 8 8 7 7 7 7 7 6 6 7 7 7 7 7 7 7 7 7 7 8
16 16 16 17 17 15 14 15 15 14 14 14 13 13 13 12 11 10 10 9 8 8 7 7 7 6 6 6 6 5 5 5 5 6 6 6 6 6 6 6 7 7 7 7
15 15 16 17 16 16 15 15 14 14 14 13 13 12 11 11 10 9 8 8 7 7 6 6 5 5 5 5 5 4 5 5 5 5 5 5 5 5 6 6 6 6 7 7
15 16 16 16 16 15 15 14 14 13 13 12 12 11 10 9 9 8 7 7 6 6 5 5 5 5 4 4 4 4 4 4 4 4 4 5 5 5 5 6 6 6 6 7
15 16 16 16 15 15 15 14 13 13 12 12 11 10 9 9 8 7 7 6 6 5 5 5 5 4 4 4 4 4 4 4 4 4 4 4 5 5 5 5 6 6 6 6
14 15 14 15 15 15 14 13 13 12 12 11 10 9 9 8 7 7 6 6 5 5 4 4 4 4 5 4 4 4 4 4 4 4 4 4 5 5 5 5 5 6 6 6
17 16 16 15 15 14 13 13 12 11 11 10 9 9 8 7 7 6 6 5 5 4 4 5 4 5 5 5 5 4 4 4 4 4 4 4 5 5 5 5 5 6 6 6
17 16 15 15 14 14 13 12 12 11 10 9 9 8 7 7 6 6 5 5 4 5 5 5 5 5 5 5 5 5 5 5 4 5 5 5 5 5 5 5 6 6 6 6
16 16 15 14 14 13 12 12 11 10 9 9 8 8 7 6 6 5 5 5 5 5 5 5 5 5 5 5 5 5 5 5 5 5 5 5 5 5 5 5 6 6 6 6
16 15 15 14 13 12 12 11 10 9 9 8 8 7 7 6 5 5 5 5 5 5 5 5 5 5 5 6 5 5 5 5 5 5 5 5 5 5 5 6 6 6 6 6
16 15 14 13 13 12 11 10 9 9 9 8 7 7 6 6 5 5 5 5 5 5 5 5 5 6 6 6 6 6 6 6 6 6 6 6 6 6 6 6 6 6 6 6
16 15 14 13 12 11 11 10 9 9 8 8 7 7 6 5 5 5 5 5 5 6 6 5 6 6 6 6 6 6 6 6 6 6 6 6 6 6 6 6 6 6 6 6
15 14 13 13 12 11 10 9 9 9 8 8 7 7 6 6 5 5 5 5 5 5 5 6 6 6 6 6 6 6 6 6 6 6 6 6 6 6 6 6 6 7 7 7
15 14 13 12 12 11 10 9 9 9 8 8 7 7 6 6 5 5 5 5 5 5 5 6 6 6 6 7 6 6 6 6 6 6 6 6 6 6 7 7 7 7 7 7
14 14 13 12 11 10 10 9 9 8 8 8 7 6 6 6 5 5 5 5 5 5 6 6 6 7 7 7 7 7 7 7 7 6 6 7 7 7 7 7 7 7 7 7
14 13 13 12 11 10 10 9 9 8 8 7 7 6 6 6 6 5 5 5 5 6 6 6 7 7 7 8 8 7 7 7 7 7 7 7 7 7 7 7 7 7 8 8
14 13 12 12 11 10 10 9 9 8 8 7 7 6 6 5 5 5 5 5 6 6 6 7 7 8 8 8 8 8 8 7 7 7 7 7 7 7 7 7 7 8 8 8
13 13 12 12 11 10 10 9 9 8 8 7 6 6 6 5 6 5 5 6 6 7 7 7 7 8 8 8 8 8 8 8 8 8 8 8 8 8 8 8 8 8 9 9
13 13 12 12 11 10 10 9 9 8 8 7 7 6 6 5 5 5 6 6 7 7 7 8 8 8 9 9 9 8 8 8 8 8 8 8 8 8 9 9 9 9 9 10
13 13 12 12 11 10 10 9 9 8 7 7 6 6 6 6 6 6 6 6 7 7 7 8 8 9 9 9 9 9 9 9 9 9 9 9 9 9 9 9 9 10 10 10
13 13 12 11 11 10 10 9 8 8 7 7 6 6 6 6 6 6 6 6 7 7 7 8 8 9 9 9 9 9 9 9 9 9 9 9 10 10 10 10 10 10 11 11
Wind_Speed
4 1 7 9 9 10 9 5 3 3 1 2 3 3 4 5 7 6 5 6 7 7 8 8 9 10 10 10 10 10 10 10 11 12 11 11 11 11 11 10 11 10 9 9
6 4 10 10 10 8 7 5 3 2 2 3 4 4 6 8 9 6 7 9 10 10 10 10 10 11 11 11 11 10 11 11 11 11 10 11 11 11 10 10 10 9 9 9
5 7 4 6 7 6 4 4 3 2 3 6 6 8 9 9 8 9 10 11 12 11 11 11 11 11 11 12 11 10 11 11 10 10 10 11 11 9 9 10 9 9 9 9
2 7 4 3 1 5 4 4 4 1 5 6 7 9 8 9 9 11 12 12 12 11 11 11 11 11 10 10 10 10 10 10 10 10 10 10 9 9 10 8 8 8 9 9
3 2 2 0 3 4 2 2 2 4 7 8 8 7 7 9 10 12 13 13 12 11 12 11 11 10 10 9 9 9 10 9 9 9 9 8 8 9 9 7 8 8 8 9
3 2 3 4 4 3 2 3 2 6 7 8 8 8 8 10 11 12 12 11 11 10 9 9 10 9 9 10 9 10 10 9 9 8 8 9 9 9 8 8 9 8 9 9
2 1 3 4 5 4 3 7 6 6 7 7 7 8 10 12 11 11 11 11 10 10 9 10 10 10 11 11 11 11 10 10 10 9 9 10 10 9 9 8 8 8 9 9
2 1 5 4 4 2 5 6 6 6 7 8 9 11 11 11 11 11 11 10 10 10 11 11 11 11 13 14 13 12 11 11 11 10 11 11 8 8 8 8 8 8 8 8
6 5 5 1 4 5 5 4 5 6 8 8 9 10 11 9 10 10 11 10 10 12 14 13 12 12 15 15 14 14 13 13 12 12 10 10 9 9 8 7 7 7 6 7
3 3 4 3 1 1 2 3 6 6 8 8 9 10 10 9 10 11 10 11 11 13 16 16 15 15 15 16 15 14 14 13 12 11 11 10 8 8 7 7 7 6 6 6
2 1 1 3 4 3 4 6 7 7 7 9 9 9 9 9 10 11 11 11 12 15 17 18 17 17 16 15 14 14 13 12 11 10 10 9 8 7 8 8 8 8 6 6
5 6 4 5 5 3 5 6 7 8 9 9 7 9 9 10 10 11 14 15 15 16 17 18 18 18 16 14 13 13 12 10 8 7 7 6 6 7 9 9 10 13 11 8
6 6 6 3 2 4 4 6 7 7 8 8 8 8 9 10 11 13 15 16 17 17 18 18 18 17 16 14 13 12 11 10 7 6 6 5 5 5 4 4 4 6 8 10
6 5 2 0 1 4 5 6 7 8 7 8 8 8 9 10 13 15 16 16 17 18 18 17 17 17 16 14 13 11 10 10 8 5 5 5 4 4 3 3 1 1 1 5
6 6 5 2 2 5 5 6 7 8 8 8 7 9 11 13 14 16 16 16 17 17 18 17 17 17 16 15 13 11 8 6 5 4 4 4 3 3 3 3 3 3 3 3
6 6 5 4 4 5 5 6 6 8 8 8 8 10 12 12 14 15 16 16 17 18 18 17 17 17 17 15 13 9 7 9 6 3 2 2 2 2 2 3 3 4 5 5
6 3 2 1 2 3 4 5 6 7 8 8 9 11 12 13 13 15 16 17 16 16 15 15 17 18 16 13 11 8 7 6 7 3 1 1 1 2 3 3 3 5 5 7
9 7 7 5 2 2 4 6 6 7 7 7 9 10 12 13 14 16 17 17 17 16 15 16 18 18 15 13 10 7 6 4 3 2 1 0 1 2 2 3 4 5 5 5
9 8 7 6 4 2 2 5 6 7 6 7 9 10 11 12 13 14 15 16 16 17 18 20 22 17 15 14 13 6 6 5 3 2 1 1 1 2 3 4 4 5 6 6
8 8 7 5 3 1 3 5 6 5 6 7 8 10 11 13 13 14 15 13 12 13 18 20 19 15 14 13 14 7 5 4 3 2 1 2 2 3 3 4 5 6 6 5
9 8 6 4 1 2 4 5 4 5 6 7 7 9 11 12 12 13 13 13 15 17 20 19 15 14 14 13 11 6 5 2 1 1 2 3 4 4 4 5 5 5 5 5
8 7 6 3 1 3 5 4 3 4 6 7 8 9 10 12 13 13 11 10 14 20 17 13 14 18 20 15 7 6 5 3 1 2 2 3 3 4 4 4 5 5 5 5
7 6 5 4 3 3 4 3 3 3 4 6 7 8 9 9 9 11 13 12 14 20 16 13 20 25 22 12 9 7 6 5 3 2 3 3 3 3 4 4 4 5 5 5
7 7 6 4 2 0 2 2 3 2 3 5 6 7 7 8 9 8 9 14 18 18 14 15 21 24 18 11 10 9 7 5 4 3 3 3 3 3 3 4 4 4 4 5
8 7 6 5 3 2 2 1 2 3 4 4 6 7 6 6 7 10 11 13 17 17 14 16 20 21 15 12 11 10 8 7 5 4 3 3 3 3 3 3 4 4 4 4
8 7 6 6 5 4 3 1 1 1 2 4 5 6 6 7 8 9 10 12 15 15 13 12 14 15 13 13 12 12 10 8 8 6 5 4 4 4 3 3 4 3 4 4
7 6 4 3 3 4 3 3 2 1 1 2 4 5 7 8 9 10 11 11 12 12 12 12 12 12 12 12 12 11 11 10 9 7 6 5 5 4 3 4 3 3 3 3
Wind_Direction
290 358 76 70 64 66 74 87 100 325 16 5 346 336 323 317 312 316 323 316 299 282 270 264 263 260 256 254 252 249 245 244 244 244 243 243 244 244 244 243 246 245 248 252
354 71 91 65 46 49 56 48 35 42 60 321 317 334 329 321 315 308 299 293 287 281 276 270 267 264 261 257 254 248 245 246 246 244 244 243 243 244 242 241 241 240 241 244
331 326 76 31 18 39 33 23 54 63 292 308 325 325 312 308 300 291 292 294 290 283 273 269 266 264 263 260 259 254 250 250 248 245 243 242 246 244 238 239 238 239 240 239
346 18 31 227 27 56 73 79 72 24 300 303 296 290 287 294 292 293 294 293 289 282 278 274 271 272 270 268 265 261 258 257 254 249 247 246 243 240 240 238 238 239 240 240
84 10 184 256 8 7 324 237 43 337 321 315 306 311 297 284 284 286 289 289 288 285 284 287 289 289 288 286 281 274 268 264 261 257 254 252 249 246 244 239 238 238 240 239
79 24 262 252 301 296 351 270 318 352 327 311 324 326 295 289 291 291 292 296 297 299 302 305 303 304 303 297 291 284 280 275 268 260 254 252 249 249 246 238 238 241 245 241
85 272 262 265 304 34 51 278 298 304 301 302 299 275 283 298 301 301 303 305 307 311 311 303 300 301 297 292 286 283 283 281 275 267 260 256 252 250 246 242 242 242 246 248
104 17 274 312 42 79 242 259 284 293 296 296 290 289 297 305 309 314 315 315 315 313 307 302 300 300 296 292 289 286 283 280 276 270 269 274 256 251 244 238 240 244 246 253
174 202 221 126 142 200 219 269 288 295 302 304 306 305 311 314 317 316 315 314 311 308 308 306 302 298 297 296 293 291 286 282 278 272 265 262 256 252 248 239 236 238 235 242
110 160 167 142 133 331 328 311 307 312 314 318 314 315 321 320 318 318 315 313 313 314 315 313 310 304 298 296 292 289 285 282 278 272 266 258 253 247 242 235 231 231 231 234
144 238 316 339 342 337 347 346 339 329 322 323 325 325 323 320 320 319 317 316 318 318 316 314 313 310 306 303 298 292 287 282 279 272 265 260 252 245 239 233 224 220 224 217
209 221 198 258 284 353 8 344 333 333 329 329 332 324 324 322 318 320 322 323 322 320 318 317 315 312 310 306 299 293 290 285 280 271 264 258 255 263 251 240 240 233 226 214
172 178 177 223 353 10 353 340 338 339 334 331 328 325 327 323 321 323 324 325 323 321 319 318 316 315 314 312 306 298 292 289 284 272 263 259 251 249 263 271 255 244 227 211
156 143 125 51 331 349 353 344 344 340 334 327 324 326 327 323 323 326 327 325 323 321 320 320 319 319 320 318 313 305 299 294 291 270 259 253 248 239 228 223 210 101 102 170
145 139 152 145 32 7 356 349 350 337 328 327 326 328 328 327 327 327 326 326 325 324 323 324 324 324 324 324 320 313 309 302 291 275 257 242 236 226 214 200 173 140 110 96
134 114 102 71 26 2 355 354 344 329 326 326 328 326 325 324 324 326 329 331 329 326 325 326 328 327 326 326 326 323 316 322 324 297 275 241 217 204 188 171 158 148 149 150
137 141 123 65 18 3 352 340 330 323 323 326 323 322 325 327 329 331 332 331 327 322 323 329 330 329 327 328 328 326 324 326 338 336 318 261 197 174 167 161 156 152 158 169
149 153 150 139 123 7 344 336 327 324 321 318 321 326 330 332 332 331 331 330 329 330 333 335 333 330 327 328 330 326 326 325 324 325 326 305 149 148 150 150 147 145 143 154
135 132 125 111 100 61 338 320 315 317 320 322 327 329 328 328 328 328 331 332 334 337 336 333 328 329 326 326 331 324 325 327 330 325 337 104 126 137 139 134 133 137 140 144
135 132 123 107 83 42 323 312 317 324 322 323 329 331 333 333 332 333 333 332 334 334 330 328 329 330 328 325 327 321 322 330 349 7 40 78 101 118 128 131 132 133 137 144
144 138 128 117 73 331 314 314 320 324 321 328 335 331 329 329 332 336 337 337 336 337 334 328 335 337 335 332 322 322 325 335 26 59 66 75 89 100 108 116 122 127 133 138
154 151 148 151 213 299 304 310 316 325 332 335 335 334 335 336 337 338 335 334 332 334 336 335 340 339 341 339 340 340 345 358 65 117 105 95 99 105 111 118 121 126 133 138
166 168 169 187 220 271 307 321 328 336 340 340 338 338 336 333 335 339 339 335 336 334 337 339 339 341 344 351 355 359 4 17 40 90 107 111 111 115 123 125 125 130 135 138
175 179 187 197 195 288 321 304 320 337 349 343 339 339 339 339 339 339 330 329 337 336 341 339 341 346 352 359 360 4 11 21 35 66 91 99 104 110 117 123 126 132 137 139
183 185 187 183 190 208 218 259 352 4 1 348 342 343 345 342 338 336 336 339 343 345 347 346 348 351 359 1 4 6 12 18 28 51 75 89 96 107 118 128 137 137 139 145
187 191 194 190 185 181 177 141 72 359 358 353 343 342 345 345 343 343 345 345 347 349 353 354 355 357 2 3 6 11 15 18 29 37 50 67 81 91 106 118 127 128 136 144
194 189 176 165 163 161 151 131 120 96 43 25 356 348 351 351 351 352 352 353 354 356 357 358 359 0 3 6 9 14 16 18 21 28 33 39 49 61 73 87 94 96 114 129
Height
1504 1500 1499 1503 1502 1502 1507 1511 1519 1516 1515 1514 1511 1509 1507 1504 1501 1497 1494 1491 1488 1484 1480 1477 1473 1470 1466 1462 1459 1457 1454 1451 1449 1447 1445 1443 1442 1440 1439 1438 1436 1435 1433 1432
1508 1501 1503 1508 1507 1505 1507 1509 1511 1513 1515 1511 1509 1506 1503 1500 1496 1492 1489 1485 1481 1477 1473 1469 1465 1461 1457 1454 1451 1448 1444 1442 1440 1438 1436 1435 1433 1432 1430 1429 1428 1427 1426 1425
1517 1506 1505 1521 1514 1511 1512 1512 1513 1517 1516 1509 1506 1503 1500 1496 1492 1488 1484 1479 1475 1470 1466 1461 1457 1452 1448 1444 1441 1438 1435 1433 1431 1429 1427 1425 1424 1423 1422 1421 1420 1419 1418 1417
1519 1518 1526 1522 1509 1509 1512 1514 1512 1511 1510 1507 1504 1500 1496 1493 1488 1483 1478 1473 1468 1463 1457 1453 1448 1444 1439 1435 1432 1429 1425 1423 1421 1419 1417 1416 1415 1414 1413 1412 1411 1410 1409 1408
1524 1524 1522 1516 1510 1509 1511 1513 1511 1509 1506 1502 1499 1495 1491 1488 1484 1479 1473 1467 1461 1456 1451 1445 1440 1435 1430 1426 1422 1419 1416 1413 1411 1409 1407 1406 1405 1404 1404 1403 1402 1401 1401 1400
1521 1524 1527 1520 1509 1506 1507 1513 1509 1506 1503 1499 1495 1494 1487 1482 1478 1472 1467 1461 1455 1449 1443 1438 1432 1427 1422 1417 1413 1409 1406 1403 1401 1399 1397 1396 1395 1394 1394 1393 1393 1393 1392 1391
1523 1524 1520 1513 1507 1507 1518 1517 1507 1504 1500 1497 1493 1490 1482 1476 1471 1466 1460 1454 1448 1442 1436 1430 1425 1419 1413 1408 1403 1399 1395 1393 1390 1388 1387 1385 1384 1384 1384 1384 1384 1383 1383 1383
1524 1528 1525 1510 1508 1512 1514 1507 1504 1501 1497 1493 1488 1483 1477 1472 1466 1460 1454 1448 1442 1435 1429 1422 1416 1410 1403 1397 1392 1388 1384 1381 1378 1377 1375 1375 1374 1374 1374 1374 1374 1374 1375 1375
1517 1520 1512 1509 1509 1509 1507 1504 1501 1497 1493 1489 1483 1478 1472 1467 1461 1455 1449 1442 1435 1428 1420 1413 1407 1401 1393 1387 1382 1377 1373 1370 1367 1366 1364 1364 1364 1363 1364 1365 1365 1366 1367 1367
1511 1510 1509 1508 1507 1505 1503 1501 1497 1494 1489 1485 1479 1474 1468 1462 1456 1450 1443 1436 1428 1420 1412 1404 1398 1391 1384 1377 1372 1367 1363 1360 1358 1356 1354 1354 1354 1354 1355 1356 1357 1358 1359 1361
1509 1507 1506 1505 1504 1502 1500 1497 1494 1490 1486 1481 1476 1470 1465 1458 1451 1444 1437 1430 1422 1414 1405 1397 1390 1383 1376 1370 1364 1359 1355 1352 1349 1347 1346 1345 1345 1346 1347 1348 1350 1352 1353 1355
1508 1504 1504 1503 1501 1499 1496 1493 1490 1486 1482 1478 1473 1467 1461 1454 1447 1440 1432 1424 1416 1408 1400 1392 1384 1376 1370 1363 1358 1353 1348 1345 1342 1340 1339 1339 1339 1339 1340 1342 1344 1346 1348 1350
1499 1500 1500 1499 1498 1496 1493 1490 1487 1483 1479 1474 1469 1464 1457 1450 1443 1435 1427 1419 1411 1403 1395 1387 1379 1372 1365 1359 1353 1347 1343 1339 1337 1335 1334 1334 1334 1335 1336 1338 1340 1342 1344 1347
1497 1497 1496 1496 1494 1492 1489 1487 1483 1480 1475 1471 1466 1460 1453 1446 1438 1431 1423 1415 1407 1399 1391 1383 1375 1368 1361 1355 1349 1344 1339 1336 1334 1332 1331 1331 1331 1332 1334 1335 1337 1339 1342 1345
1494 1493 1493 1492 1491 1488 1486 1483 1479 1475 1471 1467 1462 1456 1449 1442 1434 1427 1419 1411 1403 1395 1388 1380 1373 1366 1359 1352 1346 1342 1337 1334 1331 1330 1329 1329 1330 1331 1332 1334 1336 1339 1341 1343
1491 1491 1490 1489 1487 1485 1482 1479 1476 1472 1468 1464 1458 1452 1446 1439 1431 1424 1416 1408 1400 1392 1385 1378 1370 1364 1357 1351 1346 1341 1337 1334 1331 1330 1329 1329 1329 1330 1332 1334 1336 1338 1340 1343
1488 1487 1486 1485 1484 1482 1479 1477 1474 1470 1466 1461 1455 1449 1443 1435 1428 1420 1412 1405 1398 1391 1384 1376 1369 1363 1356 1351 1346 1342 1338 1335 1333 1331 1330 1330 1330 1331 1333 1335 1337 1339 1341 1343
1484 1484 1483 1482 1481 1479 1477 1474 1471 1467 1463 1458 1453 1446 1439 1432 1425 1417 1410 1403 1395 1388 1382 1375 1368 1361 1356 1351 1346 1342 1339 1336 1334 1332 1331 1331 1331 1333 1334 1336 1337 1339 1342 1344
1481 1481 1480 1479 1478 1476 1474 1471 1468 1465 1460 1456 1450 1444 1438 1431 1424 1416 1409 1401 1394 1386 1379 1373 1366 1360 1354 1350 1346 1342 1339 1336 1335 1333 1333 1333 1333 1334 1335 1337 1339 1341 1343 1345
1478 1478 1477 1476 1475 1473 1471 1468 1466 1462 1458 1453 1448 1441 1435 1429 1422 1414 1407 1401 1395 1388 1380 1372 1365 1359 1353 1348 1345 1341 1339 1337 1336 1335 1335 1335 1335 1335 1337 1338 1340 1343 1346 1348
1475 1475 1474 1473 1471 1470 1468 1466 1463 1460 1456 1451 1446 1440 1434 1427 1421 1414 1406 1399 1393 1387 1380 1373 1366 1359 1353 1348 1344 1341 1339 1337 1337 1336 1337 1337 1337 1338 1339 1341 1343 1346 1349 1352
1472 1471 1471 1470 1468 1467 1466 1464 1461 1458 1454 1449 1444 1439 1432 1425 1419 1412 1407 1401 1394 1387 1380 1374 1368 1361 1356 1351 1346 1343 1341 1339 1338 1338 1339 1339 1340 1341 1343 1345 1347 1350 1352 1356
1468 1468 1467 1466 1465 1464 1463 1461 1459 1456 1452 1448 1443 1437 1432 1426 1420 1413 1406 1401 1394 1388 1382 1376 1370 1364 1359 1354 1350 1346 1344 1342 1341 1341 1341 1342 1343 1345 1346 1348 1351 1354 1357 1360
1464 1464 1463 1463 1462 1462 1460 1459 1457 1454 1451 1447 1442 1437 1431 1425 1419 1413 1408 1402 1396 1390 1384 1379 1373 1368 1362 1358 1354 1351 1348 1347 1346 1346 1346 1347 1348 1349 1351 1353 1356 1358 1361 1364
1461 1460 1460 1459 1459 1459 1458 1456 1454 1452 1449 1445 1441 1436 1431 1425 1419 1413 1408 1402 1397 1391 1386 1381 1376 1371 1367 1362 1358 1356 1354 1352 1352 1351 1351 1352 1353 1355 1356 1358 1361 1363 1365 1369
1456 1456 1456 1455 1455 1455 1455 1454 1452 1450 1447 1443 1439 1435 1430 1425 1419 1414 1408 1403 1398 1393 1388 1384 1380 1375 1371 1367 1364 1361 1359 1358 1357 1357 1357 1358 1359 1360 1362 1364 1366 1368 1370 1373
1452 1452 1452 1452 1452 1452 1452 1451 1449 1448 1445 1442 1439 1434 1430 1425 1419 1414 1409 1404 1400 1395 1391 1387 1383 1379 1376 1372 1369 1367 1365 1364 1363 1363 1364 1364 1365 1366 1368 1369 1371 1373 1375 1378